Location: Famechon
(49.7599°N, 2.0615°E)
Time: 07:28:43
(UTC+00:00)

IRIDIUM 114 - Pass Details

Date: 03 February 2023
Orbit: 776 x 779 km, 86.4° (Epoch: 21 March)

Event Time Altitude Azimuth Distance (km) Brightness Sun altitude
Rises 18:35:16 0° 356° (N) 3,277 7.6 -17.2°
Reaches altitude 10° 18:37:38 10° 358° (N) 2,345 6.8 -17.6°
Maximum altitude 18:42:54 82° 86° (E) 794 4.2 -18.4°
Drops below altitude 10° 18:48:07 10° 174° (S) 2,325 6.8 -19.3°
Sets 18:50:27 0° 175° (S) 3,247 7.5 -19.7°
